Regional Weather Roundup
Issued by NWS

Home | Current Version | Previous Version | Graphics & Text | Print | Product List | Glossary On
Versions: 1 2 3 4 5 6 7 8 9 10 11 12 13 14 15 16 17 18 19 20 21 22 23 24 25 26 27 28 29 30 31 32 33 34 35 36 37 38 39 40 41 42 43 44 45 46 47 48 49 50
520
ASUS43 KDTX 232310
RWRMI
MICHIGAN HOURLY REGIONAL WEATHER ROUNDUP
NATIONAL WEATHER SERVICE DETROIT/PONTIAC MI
700 PM EDT SAT SEP 23 2017

NOTE: "FAIR" INDICATES FEW OR NO CLOUDS BELOW 12,000 FEET WITH NO
SIGNIFICANT WEATHER AND/OR OBSTRUCTION TO VISIBILITY.

MIZ047>049-052>055-059>063-066>070-074>076-081>083-240000-
SOUTHEAST LOWER MICHIGAN

CITY           SKY/WX    TMP DP  RH WIND       PRES   REMARKS
ADRIAN         CLEAR     84  60  44 SE5       30.11S
ALMA           CLEAR     89  52  28 S13       30.08S
ANN ARBOR      CLEAR     84  64  50 SE5       30.11R
BAD AXE        CLEAR     84  67  55 SE3       30.10S
CARO           CLEAR     85  65  50 E3        30.09S
DETROIT CITY   CLEAR     85  62  46 E3        30.10S
DETROIT        CLEAR     84  62  47 SE7       30.11S
FLINT          CLEAR     83  63  50 SE7       30.09S
GROSSE ILE     CLEAR     76  69  79 CALM      30.10S
HILLSDALE      CLEAR     82  61  47 SE3       30.12S
HOWELL         CLEAR     87  58  37 S5        30.11S

CITY           SKY/WX    TMP DP  RH WIND       PRES   REMARKS
JACKSON        CLEAR     89  56  32 SE5       30.10S
LAMBERTVILLE   CLEAR     81  63  54 CALM      30.10S
LANSING        CLEAR     88  57  34 S8        30.09S
LAPEER         FAIR      85  68  57 CALM      30.11S
MASON          CLEAR     88  57  34 SE3       30.10F
MONROE         CLEAR     80  64  58 SE3       30.10S
MT. CLEMENS    CLEAR     81  65  57 CALM      30.09S
PONTIAC        CLEAR     86  64  47 SE7       30.10S
PORT HOPE        N/A     75  69  81 SE5       30.08S
PORT HURON     CLEAR     82  66  57 CALM      30.11R
TRI CITIES     CLEAR     89  65  44 S8        30.08S HX  91
MIDLAND        FAIR      90  64  41 CALM      30.06S HX  91
TROY           CLEAR     87  62  42 CALM      30.13S
SAGINAW HB     CLEAR     88  61  40 S6        30.07S
$$
MIZ043>046-050>051-056>058-064>065-071>073-077>080-240000-
SOUTHWEST LOWER MICHIGAN

CITY           SKY/WX    TMP DP  RH WIND       PRES   REMARKS
BATTLE CREEK   CLEAR     89  59  36 S7        30.09F
BENTON HARBOR  CLEAR     85  67  54 CALM      30.06S
BIG RAPIDS     CLEAR     83  67  58 CALM      30.08S
COLDWATER      CLEAR     85  58  38 SE3       30.10S
FREMONT        FAIR      88  63  42 W3        30.06S
HOLLAND        CLEAR     87  65  47 NW5       30.07S
GRAND RAPIDS   PTCLDY    91  58  32 S6        30.07S HX  90
IONIA          FAIR      89  56  32 S5        30.07S
KALAMAZOO      CLEAR     89  57  33 S5        30.08S
LUDINGTON      CLEAR     81  65  59 SW3       30.06S
MARSHALL       CLEAR     87  59  39 SE3       30.09S
MUSKEGON       CLEAR     87  66  49 W5        30.06S
SOUTH HAVEN    CLEAR     85  67  55 CALM      30.06S
$$
MIZ016>042-240000-
NORTHERN LOWER MICHIGAN

CITY           SKY/WX    TMP DP  RH WIND       PRES   REMARKS
ALPENA         CLEAR     86  71  60 S3        30.05F HX  91
BEAVER ISLAND  CLEAR     81  63  53 S9        30.03S
BELLAIRE       CLEAR     82  69  66 CALM      30.05R
CADILLAC       CLEAR     88  60  38 S5        30.09S
CHARLEVOIX     CLEAR     84  66  54 W5        30.08R
FRANKFORT      CLEAR     82  66  58 CALM      30.05S
GAYLORD        CLEAR     83  65  54 SW6       30.09S
GRAYLING       CLEAR     85  65  50 CALM      30.10S
HARBOR SPRINGS CLEAR     76  66  70 CALM      30.05R
HOUGHTON LAKE  CLEAR     85  66  53 S5        30.10S
MANISTEE       CLEAR     85  68  56 SW3       30.05S
OSCODA         CLEAR     84  66  54 S6        30.07S
PELLSTON       CLEAR     84  65  52 W3        30.05S
ROGERS CITY    CLEAR     84  68  59 CALM      30.06S
TRAVERSE CITY  PTCLDY    89  64  43 SW5       30.03S HX  90
$$
MIZ007>008-015-240000-
EASTERN UPPER MICHIGAN

CITY           SKY/WX    TMP DP  RH WIND       PRES   REMARKS
KINROSS        CLEAR     80  67  64 S7        30.04S
MACKINAC ISLAN CLEAR     78  64  60 W3        30.05S
NEWBERRY       CLEAR     78  69  74 S13       30.02S
S. S. MARIE    CLEAR     82  67  60 SW12      30.02S
MUNISING         N/A     83  70  64 SW5       29.98R
$$
MIZ004>006-011>014-085-240000-
CENTRAL UPPER MICHIGAN

CITY           SKY/WX    TMP DP  RH WIND       PRES   REMARKS
MANISTIQUE     CLEAR     69  63  81 S3        30.02S
ESCANABA       CLEAR     75  67  76 S8        30.00R
MENOMINEE      CLEAR     83  67  58 SW7       30.02R
SAWYER-GWINN   CLEAR     84  66  54 SW10      30.01R
$$
MIZ001>003-009>011-084-240000-
WESTERN UPPER MICHIGAN

CITY           SKY/WX    TMP DP  RH WIND       PRES   REMARKS
IRON MOUNTAIN  CLOUDY    85  63  47 S3        30.01R
HOUGHTON       MOCLDY    79  69  71 NW3       29.96R
COPPER HARBOR    N/A     71  65  81 CALM      29.96R
IRONWOOD       PTCLDY    83  70  64 SW6       29.99R
$$

ABBREVIATIONS USED IN REMARKS
   TC - TEMPERATURE IN CELSIUS
  WCI - WIND CHILL INDEX
   HX - HEAT INDEX
  VSB - VISIBILITY





USA.gov is the U.S. government's official web portal to all federal, state and local government web resources and services.